Regional Weather Roundup
Issued by NWS Newport/Morehead, NC

Current Version | Previous Version | Text Only | Print | Product List | Glossary Off
Versions: 1 2 3 4 5 6 7 8 9 10 11 12 13 14 15 16 17 18 19 20 21 22 23 24 25 26 27 28 29 30 31 32 33 34 35 36 37 38 39 40 41 42 43 44 45 46 47 48 49 50
000 ASUS42 KMHX 140125 RWRMHX WEATHER ROUNDUP FOR EASTERN NORTH CAROLINA NATIONAL WEATHER SERVICE NEWPORT/MOREHEAD CITY NC 800 PM EST WED DEC 13 2017 NOTE: "FAIR" INDICATES FEW OR NO CLOUDS BELOW 12,000 FEET WITH NO SIGNIFICANT WEATHER AND/OR OBSTRUCTIONS TO VISIBILITY NCZ015>017-031-032-045>047-102-103-140200- NORTH COAST CITY SKY/WX TMP DP RH WIND PRES REMARKS EDENTON PTCLDY 37 20 51 S8 29.85S ELIZABETH CITY CLEAR 33 18 53 S5 29.84F KITTY HAWK CLEAR 35 16 45 SW5 29.86S MANTEO CLEAR 36 19 50 SW9 29.88F $$ NCZ045>047-081-094-103-104-140200- CENTRAL COAST CITY SKY/WX TMP DP RH WIND PRES REMARKS FRISCO CLEAR 40 23 50 W9 29.90R $$ NCZ095-097-098-100-101-140200- SOUTHERN COAST CITY SKY/WX TMP DP RH WIND PRES REMARKS BEAUFORT CLEAR 39 26 59 SW10 29.88F CEDAR ISLAND NOT AVBL JACKSONVILLE CLEAR 37 18 46 S6 29.87F PINEY ISLAND N/A N/A N/A N/A S6 29.88F WILMINGTON CLEAR 35 25 66 S6 29.90F $$ NCZ011>013-027>030-043-044-078>080-089-090>093-098-140200- COASTAL PLAIN CITY SKY/WX TMP DP RH WIND PRES REMARKS AHOSKIE CLEAR 31 15 49 S5 29.81F CLINTON CLEAR 38 20 49 S7 29.84F ELIZABETHTOWN NOT AVBL GOLDSBORO CLEAR 36 15 42 S7 29.81F GREENVILLE CLEAR 34 18 51 S7 29.86F HAVELOCK CLEAR 32 21 64 SW3 29.89F KENANSVILLE CLEAR 34 21 60 CALM 29.86S KINSTON CLEAR 34 18 51 S6 29.86F NEW BERN CLEAR 31 19 61 S6 29.89F RICHLANDS CLEAR 34 20 56 S7 29.88F ROCKY MOUNT CLEAR 35 17 47 S8 29.81F WASHINGTON CLEAR 36 14 41 S5 29.85F WHITEVILLE CLEAR 38 21 51 S6 29.88F $$ AMZ130-135-150-152-154-156-158-170-250-252-270-ANZ085-086-088-633-658-670-140200- MARINE OBSERVATIONS STATION/POSITION TIME TEMP WIND PRES WAVE SWELL AIR SEA DIR/SP/G HT/PER HT/PER (UTC) (F) (DEG/KT/KT) (MB) (FT/S) (FT/S) CHESAPEAKE LIGHT NOT AVBL 64 E VA BEACH 0050 41 58 250/ 16/ 21 1010.6 4/ 5 2/ 8 DUCK 0100 39 54 220/ 12/ 16 1010.4 2 E DUCK 0100 55 N/A 2/12 OREGON INLET 0100 39 44 220/ 14/ 15 1011.6 13E OREGON INLT 0048 56 N/A 4/ 8 2/ 8 HATTERAS CG 0100 41 49 250/ 8/ 13 1011.8 DIAMOND BUOY 0110 48 74 260/ 12/ 19 1012.1 CAPE LOOKOUT 0100 230/ 7/ 9 1012.4 BEAUFORT LAB 0100 45 51 220/ 8/ 12 1011.8 30 SE NEW RVR IN 0108 50 63 220/ 12/ 17 1012.6 30 SE NEW RVR IN 0100 63 N/A 3/ 8 27 SE WRIGHTSVLE 0108 50 64 220/ 16/ 21 1012.9 5 SE WRIGHTSVLE 0108 48 57 240/ 14/ 19 1012.3 225 S CAPE HAT 0050 59 75 260/ 12/ 16 1014.7 10/ 8 10/ 8 41 SE CHARLESTON 0110 74 240/ 19/ 25 1013.7 $$

USA.gov is the U.S. government's official web portal to all federal, state and local government web resources and services.